Aérodrome :
LOGIN :

S'inscrire | Disclaimer

   EN    FR    IT 

 










Légende :    VFR   VFR Marginal   IFR   IFR Intensif   IFR Très Intensif
Visi : 
Plafond : 
>= 8 km
>= 3000ft
5 à 8 km
1000 à 3000 ft
1500m à 5 km
500 à 1000 ft
800 à 1500m
200 à 500 ft
< 800m
< 200 ft
Symboles :   Orages  Brouillard  Fortes neiges  Fortes précipitations  Vent > 20 kt
SIGMETs :   Divers  Orages  Givrage  Turbulence  Onde Orograph.  Cendres Volcan.







- Altitude de l'aérodrome : 156 ft
- Code IATA : OMO


LQMO - Mostar

DERNIER METAR :
  • 202000Z 03017KT CAVOK 22/M01 Q1018

METARs EXPIRÉS :
  • 201900Z 02015KT 9999 FEW060 22/02 Q1018
  • 201800Z 01012KT 320V050 9999 FEW060 23/01 Q1017

TAF TAF LQMO
Valide du 20 à 18h jusqu'au 21 à 18h UTC


201700Z 2018/2118 33007KT CAVOK TX27/2113Z TN13/2104Z
TEMPO 2018/2024 03015KT
PROB30
TEMPO 2018/2020 03017G27KT
PROB40
TEMPO 2111/2116 24010KT
Pas de NOTAMs connus pour ce terrain.



MET'MAP, la Météo Aéronautique d'un coup d'oeil ! - Copyright ORBIFLY Décembre 2007 - Disclaimer

ORBIFLY MET'MAP TEAM :

Programmation & Développement : Alexandra Zaïnal
Conception & Développement : Baudouin d'Aumeries
Co-Programmation & Développement : Marc-Olivier Méhu
Soutien technique & logistique : Manuel Goepfert

Contact : metmap@orbifly.com




SOURCES & CREDITS :

   NOAA